Washington
Sunday 2:55 PM
Temperature75° (75°/52°)
Dew Point48°
Relative Humidity38
%
Visibility10
mi
Pressure1024.4
mb
Wind DirectionNE
50°
Wind Speed5
mph
(G13)
Precipitation Today0.00"

Last 30 Observations

Time PresWx Temp DP Feels RH% Vsby Pressure Ceiling Direction Speed 1h Precip
2:35 PM 75° 50° 41
%
10
mi
1024.4
mb
Variable 7
mph
0.00"
2:15 PM 73° 48° 41
%
10
mi
1024.7
mb
Variable 6
mph
(G15)
0.00"
1:55 PM 73° 48° 41
%
10
mi
1025.1
mb
Variable 6
mph
0.00"
1:35 PM 73° 48° 41
%
10
mi
1025.4
mb
Calm 0.00"
1:15 PM 73° 48° 41
%
10
mi
1025.4
mb
Variable 5
mph
(G11)
0.00"
12:55 PM 73° 48° 41
%
10
mi
1025.7
mb
Calm 0.00"
12:35 PM 72° 48° 43
%
10
mi
1025.7
mb
SW
230°
5
mph
0.00"
12:15 PM 72° 48° 43
%
10
mi
1025.7
mb
Variable 5
mph
0.00"
11:55 AM 72° 46° 41
%
10
mi
1026.1
mb
Variable 7
mph
0.00"
11:35 AM 72° 46° 41
%
10
mi
1026.1
mb
Variable 5
mph
0.00"
11:15 AM 70° 46° 43
%
10
mi
1026.4
mb
Variable 7
mph
0.00"
10:55 AM 70° 46° 43
%
10
mi
1026.4
mb
Variable 3
mph
0.00"
10:35 AM 70° 45° 40
%
10
mi
1026.8
mb
SSE
160°
6
mph
0.00"
10:15 AM 70° 48° 46
%
10
mi
1026.8
mb
Variable 5
mph
0.00"
9:55 AM 68° 52° 56
%
10
mi
1026.8
mb
Variable 6
mph
0.00"
9:35 AM 66° 54° 64
%
10
mi
1027.1
mb
E
100°
8
mph
0.00"
9:15 AM 66° 54° 64
%
10
mi
1027.1
mb
ESE
110°
6
mph
0.00"
8:55 AM 64° 52° 64
%
10
mi
1026.8
mb
SE
130°
5
mph
0.00"
8:35 AM 63° 52° 68
%
10
mi
1026.8
mb
SE
130°
6
mph
0.00"
8:15 AM 63° 52° 68
%
10
mi
1026.4
mb
SE
130°
6
mph
0.00"
7:55 AM 61° 52° 72
%
10
mi
1026.4
mb
ESE
110°
7
mph
0.00"
7:35 AM 59° 54° 82
%
10
mi
1026.1
mb
E
90°
7
mph
0.00"
7:15 AM 57° 54° 88
%
10
mi
1025.7
mb
ENE
70°
5
mph
0.00"
6:55 AM 55° 54° 94
%
10
mi
1025.7
mb
ENE
70°
6
mph
0.00"
6:35 AM 52° 52° 100
%
10
mi
1025.4
mb
ENE
60°
5
mph
0.00"
6:15 AM 52° 52° 100
%
10
mi
1025.1
mb
ENE
60°
6
mph
0.00"
5:55 AM 52° 50° 94
%
10
mi
1025.1
mb
ENE
60°
5
mph
0.00"
5:35 AM 52° 50° 94
%
10
mi
1025.1
mb
NE
50°
5
mph
0.00"
5:15 AM 52° 50° 94
%
10
mi
1024.7
mb
NE
50°
5
mph
0.00"
4:55 AM 54° 48° 82
%
10
mi
1024.7
mb
NE
50°
5
mph
0.00"